Theta_e
312 312 312 312 312 312 312 312 312 311 311 311 311 312 312 312 311 312 312 312 312 312 312 313 313 312 313 313 313 314 313 311 312 311 309 313 316 321 322 322 324 327 328 320 321 312 313 316 314 317 314 313 310 309 313 311 313 309 304 302 301 302 301 305 303 305 309 306 307 309 310 314 313 315 319 324 321 322 319 323 330 333 337 335 336 345 348 348
311 312 312 312 312 312 312 311 311 311 311 311 311 311 312 312 311 312 311 311 312 312 312 312 312 312 313 312 313 313 311 311 310 310 310 315 323 324 325 328 325 326 328 317 316 310 311 312 313 314 311 307 312 308 312 307 312 305 303 303 301 303 305 307 308 309 307 307 308 309 310 311 315 315 317 315 317 321 317 323 323 326 334 335 335 341 345 346
311 311 312 311 311 311 311 311 311 311 311 311 311 311 311 311 311 312 311 311 311 312 312 312 312 312 312 312 312 313 312 309 311 307 310 327 327 322 324 326 323 326 318 314 317 313 312 312 314 311 310 307 309 306 309 307 309 307 304 301 302 307 307 308 309 308 309 309 307 308 309 310 320 320 317 317 316 319 316 319 320 323 328 330 337 343 344 344
311 311 311 311 311 311 311 311 310 310 310 310 310 310 311 311 311 311 311 312 312 312 312 312 312 312 312 312 313 313 311 310 304 305 315 327 323 325 324 325 324 324 315 315 316 315 315 314 313 311 309 306 308 309 305 309 305 307 304 303 305 308 305 307 309 309 310 309 308 308 309 309 318 314 316 319 315 315 318 322 321 321 326 327 332 337 343 343
311 311 311 310 310 310 310 310 310 309 310 310 309 310 310 311 311 311 310 311 312 312 312 311 311 312 312 312 312 312 310 298 300 313 317 331 331 325 326 325 326 316 312 313 314 314 314 312 311 309 308 304 307 306 306 308 309 308 304 307 308 307 305 307 308 310 309 309 308 308 307 307 312 312 314 318 314 313 317 321 323 325 327 330 328 335 343 342
311 311 310 310 310 310 310 310 310 310 309 310 310 310 310 311 311 311 310 310 311 311 311 311 311 311 311 312 310 311 307 292 309 315 324 327 332 330 324 326 328 316 311 311 310 311 311 310 310 306 305 305 304 303 306 307 310 302 307 307 308 308 305 309 309 309 309 308 307 307 308 310 309 311 314 317 314 317 323 325 326 327 330 331 336 341 342 342
311 310 310 310 310 310 310 309 309 309 310 310 311 310 310 310 310 310 310 310 311 311 310 311 311 311 311 311 312 309 305 305 308 318 326 323 336 332 327 326 328 315 311 308 309 308 309 308 308 306 305 304 305 305 306 305 309 305 303 307 306 308 306 309 309 309 309 308 307 309 310 308 308 308 314 317 314 320 322 325 327 327 327 330 331 339 342 341
310 310 310 310 310 309 309 309 309 310 310 310 310 311 311 311 310 310 310 310 309 311 310 311 311 311 310 310 308 305 301 301 309 319 328 332 324 327 327 318 312 311 310 308 308 307 308 306 306 307 304 302 304 304 307 305 307 304 302 306 307 307 307 309 309 309 309 309 310 309 307 307 308 310 314 314 313 318 321 323 325 327 326 333 329 339 342 342
309 310 309 309 309 309 309 309 309 310 310 310 310 311 310 310 310 310 310 310 310 310 310 310 310 311 311 308 307 301 300 308 311 315 323 324 324 322 321 317 313 310 310 309 309 308 308 306 307 308 302 303 306 304 306 304 302 305 304 306 307 306 307 308 308 309 308 309 309 306 306 308 309 310 311 311 314 317 319 322 323 325 328 332 336 339 342 341
310 309 309 309 309 309 309 309 310 309 310 310 310 310 310 310 309 309 309 309 309 309 310 310 310 310 308 307 305 297 304 311 311 317 316 316 321 322 318 318 314 311 309 308 309 308 307 307 307 309 308 306 307 304 306 305 304 308 305 305 305 306 306 307 307 308 309 309 309 306 306 307 309 308 304 310 315 316 318 320 323 322 324 326 332 337 342 341
309 309 309 309 309 309 309 309 309 309 309 309 309 310 309 310 309 309 309 309 309 310 309 309 310 309 308 310 301 297 308 310 317 319 318 317 317 318 316 317 314 312 310 308 308 310 310 310 310 310 307 303 305 304 305 306 308 307 307 305 305 306 307 307 308 308 309 307 309 308 306 308 308 308 307 309 315 317 317 319 321 321 326 333 337 336 340 341
309 309 309 309 309 308 308 309 309 309 309 309 309 310 309 309 309 309 309 309 309 309 309 309 309 309 309 305 302 301 313 313 316 316 319 317 316 317 318 317 315 313 310 307 308 310 311 311 310 307 302 307 301 305 304 308 307 306 306 302 303 305 304 307 306 308 308 307 309 309 306 303 305 304 313 314 316 316 318 318 319 321 325 330 330 334 333 337
309 309 308 308 309 308 308 308 309 309 309 309 309 309 309 309 309 308 308 308 309 309 309 309 309 309 307 300 302 309 312 313 311 311 313 315 318 315 316 316 316 314 312 310 309 311 311 311 310 306 308 306 303 300 306 308 306 306 305 303 302 301 301 305 308 308 307 308 309 308 297 301 304 308 313 314 316 316 317 317 318 321 323 326 329 333 333 336
309 308 308 308 308 308 308 308 309 309 308 309 308 308 308 308 308 308 308 307 308 309 309 308 309 309 306 300 306 310 312 312 310 307 308 311 310 312 314 315 316 314 314 312 312 312 311 312 310 308 310 306 304 310 306 306 306 300 304 303 300 298 297 305 306 307 305 308 308 308 299 301 305 307 310 314 316 315 313 315 318 320 322 328 329 328 332 337
309 308 308 308 307 307 308 309 309 309 309 309 308 308 308 307 308 307 307 307 308 308 308 309 310 306 302 302 310 311 321 311 306 306 308 307 307 306 308 313 313 314 314 314 312 312 312 312 309 305 303 308 308 305 302 302 303 302 298 296 300 299 300 303 307 307 303 306 308 306 300 303 305 307 310 312 315 315 314 316 317 323 329 325 326 327 326 335
308 308 308 307 307 308 308 308 309 308 308 308 308 307 307 307 307 307 307 307 308 308 308 306 307 306 303 298 304 318 310 304 303 307 308 308 306 304 307 311 313 313 314 314 315 314 312 310 305 305 304 306 304 303 300 300 300 301 298 297 296 299 300 301 304 307 307 306 307 305 300 305 307 310 311 314 314 315 315 316 319 325 328 327 324 325 327 330
308 308 308 307 307 307 308 308 308 308 308 307 307 307 308 308 307 306 306 307 307 308 308 303 307 308 296 306 310 303 303 306 308 307 306 308 307 307 308 311 309 311 312 313 313 312 309 306 306 305 306 303 304 303 297 296 296 297 299 298 299 297 300 298 303 307 307 306 302 305 303 307 310 312 311 311 314 313 313 315 317 321 324 329 330 329 330 328
308 308 308 307 307 307 307 307 308 308 307 307 306 307 306 307 308 306 307 307 309 307 307 309 308 304 299 305 299 301 306 307 306 308 307 308 308 308 310 308 310 310 309 307 310 305 307 302 304 299 302 302 302 300 295 292 296 296 297 297 298 299 301 300 299 303 306 306 303 303 303 307 310 312 313 313 312 311 313 315 318 319 321 321 327 330 331 333
308 308 307 307 307 307 307 307 307 307 307 307 307 308 308 309 309 310 306 304 301 299 295 298 300 292 292 300 304 305 306 307 309 307 306 306 307 308 312 313 310 307 304 302 303 304 304 301 303 299 296 298 299 300 298 300 301 299 299 298 300 297 299 299 303 306 305 303 302 302 301 307 309 311 313 316 316 316 316 319 318 319 321 321 324 329 332 334
308 308 307 307 307 307 307 307 307 307 307 306 306 305 307 303 303 299 304 303 299 299 298 302 302 301 301 303 303 307 310 310 304 305 308 308 305 305 309 310 307 307 304 298 301 302 304 296 295 295 298 300 302 302 302 304 303 302 301 300 301 299 300 303 303 305 306 303 302 302 304 307 310 312 315 317 319 318 317 317 318 321 322 322 324 331 330 334
308 307 307 307 307 307 307 306 306 306 306 306 304 300 295 296 293 292 298 299 302 302 300 301 302 301 300 304 306 305 301 303 305 304 306 310 306 304 304 307 304 300 301 302 301 304 303 295 296 299 300 302 303 304 304 303 303 302 300 299 299 300 298 302 303 305 306 304 301 304 304 308 311 314 315 318 319 318 319 320 321 321 320 326 324 325 330 332
307 307 307 306 306 306 306 307 306 307 306 306 302 298 300 302 304 304 302 295 300 301 301 300 303 302 305 304 306 307 304 301 300 304 308 307 303 299 303 304 302 298 302 302 302 299 297 294 298 301 302 303 303 304 304 303 301 302 300 299 299 299 301 303 303 304 305 303 301 304 304 307 308 311 315 317 317 318 320 320 321 322 322 324 326 327 328 328
306 307 307 307 306 306 306 306 306 307 306 303 301 300 300 305 308 308 306 299 296 304 300 299 297 299 301 304 305 306 300 299 297 303 305 306 301 300 304 301 301 301 301 301 297 297 294 296 300 303 303 302 302 303 303 302 303 301 300 298 296 300 298 295 302 303 304 303 303 305 305 308 310 311 315 318 318 318 320 320 321 321 319 319 319 321 323 324
306 306 306 306 306 306 306 305 305 306 305 303 301 301 305 307 307 307 302 295 293 297 301 302 300 299 299 299 305 303 299 300 301 301 309 304 300 302 303 302 301 300 299 300 300 297 296 300 303 302 302 301 301 301 300 300 299 302 300 299 298 299 299 300 299 302 304 305 307 306 304 306 308 308 310 316 318 317 317 317 317 318 319 319 319 320 321 320
306 306 306 306 306 306 305 305 303 302 305 304 302 306 307 308 309 307 300 296 295 294 304 302 303 300 302 308 306 299 300 301 302 306 308 305 302 301 301 305 303 298 300 301 301 299 299 303 303 301 300 300 300 299 300 301 298 299 301 300 300 301 301 300 301 300 298 298 303 303 296 297 304 306 307 312 313 313 315 314 313 314 316 316 315 316 318 319
306 306 305 306 306 305 306 300 302 304 302 299 302 306 307 307 308 309 299 290 286 295 299 293 304 296 306 300 302 300 301 295 302 305 308 306 308 302 303 301 303 298 301 301 300 301 301 304 302 300 299 299 299 299 301 302 298 296 297 302 302 301 301 301 300 299 294 293 301 306 296 292 304 304 308 310 311 310 313 312 311 312 313 313 313 313 315 316
305 305 305 305 305 305 301 297 305 304 297 298 304 306 306 308 310 304 294 287 283 295 292 300 298 299 304 301 301 302 288 292 303 305 307 308 303 307 300 300 302 304 304 305 300 296 302 302 301 301 300 298 298 298 302 301 298 296 302 302 302 301 300 301 300 299 298 302 304 304 301 296 297 304 309 311 309 309 310 311 311 310 311 311 311 313 314 315
305 305 305 305 305 305 303 304 302 299 299 304 306 308 306 309 309 306 292 279 278 299 293 297 299 307 303 302 303 297 297 301 294 299 307 307 306 303 301 300 299 300 303 301 292 300 302 300 300 298 299 299 298 301 302 301 298 299 303 303 301 301 301 301 300 299 299 299 295 298 301 295 296 303 311 310 306 307 307 308 309 309 309 310 311 312 313 314
305 305 305 305 305 305 306 304 302 299 303 306 306 306 307 308 304 296 286 278 294 296 308 295 308 302 300 302 299 299 298 301 294 299 306 307 306 304 298 302 302 301 303 302 296 299 301 302 302 301 299 297 300 301 302 301 297 302 305 304 303 302 302 301 299 299 298 296 291 297 300 293 294 305 305 309 307 305 306 307 307 308 309 310 310 311 313 315
304 304 304 304 305 304 304 305 302 305 306 306 306 307 307 305 297 286 282 275 298 289 298 299 297 295 300 296 296 297 295 299 300 301 303 302 303 306 305 308 303 301 300 303 301 301 302 306 306 302 299 301 301 302 302 302 301 304 304 302 300 300 300 300 300 299 297 290 294 298 300 297 291 301 304 304 304 307 306 306 308 309 309 309 310 311 312 313
304 304 304 304 301 301 303 299 302 305 306 306 306 305 303 297 286 283 276 287 296 295 299 296 294 299 296 294 291 296 296 299 298 299 297 302 300 302 303 300 306 300 299 299 298 300 302 302 302 303 305 303 303 301 304 304 303 302 301 299 298 296 298 297 296 299 289 287 296 299 299 299 289 298 304 308 311 310 309 305 306 307 307 308 309 310 311 313
304 304 304 304 304 306 298 298 304 306 305 306 304 300 295 283 289 280 281 298 286 291 293 293 297 296 295 297 294 293 293 297 298 297 295 296 296 295 297 295 298 292 291 294 293 299 298 299 302 302 306 303 301 299 300 302 301 301 300 298 293 289 290 286 292 286 288 288 296 299 300 295 293 302 307 307 309 309 309 307 306 307 307 308 310 310 311 312
303 303 304 304 305 304 303 304 307 307 307 304 301 297 287 283 276 285 288 291 286 296 294 298 295 295 296 295 293 294 297 293 298 297 298 297 296 296 300 299 300 298 290 296 294 293 295 301 300 301 302 304 303 295 296 295 298 298 296 295 291 287 285 282 287 289 290 294 299 298 300 294 302 303 307 306 308 309 308 308 309 308 308 309 310 311 311 312
303 303 304 304 304 304 304 307 306 306 304 303 297 292 286 279 281 292 289 291 291 298 297 296 296 296 296 291 293 295 291 296 297 296 298 295 295 293 296 299 301 298 298 296 292 292 287 290 296 298 295 303 302 300 300 298 297 297 300 297 294 292 288 282 287 283 286 290 296 299 295 294 295 296 307 307 308 309 309 308 308 308 309 309 310 310 311 311
303 304 306 306 304 305 306 305 306 306 303 299 294 289 280 281 287 287 289 292 295 300 294 298 295 294 293 295 296 296 295 292 298 297 295 294 292 294 294 295 300 301 299 292 296 294 292 293 299 302 302 303 300 303 305 301 298 299 300 300 295 293 298 289 291 291 291 290 291 294 292 300 297 307 309 310 309 308 309 308 308 307 308 309 308 308 308 309
302 303 304 301 301 304 305 305 306 305 301 296 289 283 282 287 285 291 290 298 296 294 294 295 295 291 291 292 296 294 297 294 296 297 295 295 296 294 297 298 298 300 298 293 296 291 293 292 300 301 303 302 302 304 303 303 290 297 297 293 296 302 299 292 292 298 293 291 288 295 298 299 303 308 307 307 306 305 307 307 307 307 307 307 306 307 307 308
299 303 298 301 301 305 306 306 305 302 299 293 286 282 289 291 294 293 295 295 298 299 295 288 290 290 289 290 292 293 293 296 296 295 292 296 294 297 297 298 301 301 302 300 296 299 292 292 300 298 297 302 304 304 303 304 303 299 292 296 302 304 302 296 288 290 289 286 288 297 294 293 296 290 304 303 302 304 304 305 305 305 306 304 305 306 306 307
300 300 299 299 302 306 307 306 305 301 297 292 285 286 294 290 296 294 297 299 298 298 295 292 291 294 290 290 290 292 294 292 294 295 293 295 292 300 298 298 301 301 302 304 297 297 299 290 296 299 299 301 303 302 300 303 304 299 297 304 295 290 290 296 291 284 284 284 287 293 296 296 298 296 301 300 301 302 303 304 305 303 303 304 304 305 306 307
301 299 293 299 306 308 306 306 303 299 294 288 286 284 290 291 295 295 298 299 297 298 293 294 291 293 293 291 293 293 294 290 295 294 291 293 290 298 298 299 298 302 303 303 299 300 301 291 292 300 299 300 301 299 290 296 302 303 304 299 302 299 295 291 291 294 292 285 286 288 292 290 302 301 304 301 303 304 303 304 303 303 303 304 304 305 305 305
297 294 294 305 308 309 308 305 299 296 291 284 287 288 293 290 295 299 299 299 297 296 294 294 295 292 293 294 294 292 294 294 294 294 294 295 293 299 298 301 299 300 303 303 300 302 294 300 288 296 300 300 293 297 294 296 294 296 297 296 297 299 301 298 298 293 291 287 287 287 285 292 300 307 305 304 305 306 305 303 303 303 304 304 305 304 304 305
300 294 295 308 309 310 307 300 293 289 288 291 292 290 291 291 296 297 299 299 297 300 295 294 295 292 293 293 293 296 293 294 294 293 294 294 294 290 299 300 301 300 302 301 299 301 295 295 290 294 294 293 295 300 299 299 299 297 296 295 296 294 293 289 288 297 295 291 288 287 286 293 300 305 307 306 307 306 306 304 303 304 304 304 304 305 305 304
296 288 294 308 310 308 299 290 291 294 291 288 288 291 291 297 294 296 297 299 296 294 301 298 297 296 296 295 296 295 295 293 294 293 295 294 297 297 299 303 302 303 299 296 298 302 301 299 296 291 294 295 298 301 303 304 303 301 299 297 299 298 297 293 286 290 295 295 296 295 290 289 300 305 307 306 305 305 305 305 303 303 303 303 304 305 305 304
294 292 302 307 310 305 296 290 292 290 291 292 296 296 298 297 296 297 295 296 294 297 297 297 298 297 298 297 296 295 296 293 294 293 296 296 297 299 302 303 303 302 301 299 300 301 301 294 292 293 297 299 301 302 302 303 303 299 299 300 299 296 297 295 294 296 292 293 290 290 288 289 299 303 303 303 304 304 304 304 303 302 303 303 304 304 303 303
295 296 298 306 308 303 295 285 287 288 291 294 295 295 298 296 296 294 294 295 293 294 296 298 298 299 297 299 297 295 297 290 295 295 294 297 296 303 302 302 303 300 299 299 296 302 292 297 294 289 289 291 294 298 298 301 301 298 297 298 300 300 300 299 299 300 291 293 293 289 285 289 295 301 300 301 301 300 301 302 303 301 302 303 303 303 303 304
297 300 298 299 302 302 291 293 293 288 292 293 294 293 295 295 296 296 295 294 295 295 298 297 299 301 298 300 297 297 298 295 293 297 297 297 299 302 302 302 303 301 302 304 306 303 296 296 294 287 284 282 281 284 286 290 295 298 300 299 299 298 299 296 290 293 288 293 294 290 287 291 296 298 298 299 298 298 300 301 302 303 302 302 303 303 303 303
294 286 293 295 299 299 297 299 299 293 290 292 289 292 294 293 295 295 296 295 296 299 299 300 301 301 298 297 296 296 295 298 296 295 296 297 302 301 302 302 302 302 304 310 306 303 297 303 299 297 291 289 291 294 298 298 297 293 296 298 298 299 300 298 297 292 289 293 291 295 294 290 289 294 295 296 297 296 297 299 299 300 302 303 303 303 303 303
296 289 289 287 295 294 293 295 295 297 292 295 287 292 290 292 294 294 299 293 299 299 300 300 298 296 297 297 296 296 297 297 300 298 298 300 300 301 302 302 302 304 311 304 307 302 299 297 302 298 298 296 299 297 299 298 296 297 296 296 298 298 299 298 292 291 297 293 288 296 295 291 291 293 295 294 295 296 297 298 299 299 301 302 302 302 301 301
290 293 295 297 289 286 287 289 295 295 296 294 291 294 291 292 293 290 297 299 300 301 296 297 298 298 298 297 297 292 296 296 298 295 301 302 298 302 299 301 300 306 304 302 305 301 299 293 301 302 299 300 301 302 301 298 298 297 298 299 298 299 298 295 296 298 299 293 290 296 298 294 293 294 295 295 296 296 296 297 299 301 301 301 302 302 301 301
299 295 297 299 291 293 293 297 296 295 294 294 292 292 291 292 292 295 295 297 297 297 299 290 295 298 298 300 300 296 296 292 291 299 298 300 300 300 298 299 301 305 303 302 302 304 300 298 302 301 299 299 299 300 300 299 299 299 299 300 299 299 299 298 298 300 301 300 300 299 298 295 295 294 295 296 297 297 297 299 299 299 299 301 301 301 301 302
296 294 293 298 297 295 296 297 297 294 292 293 287 291 290 292 293 294 296 295 291 295 299 295 296 299 300 299 300 296 298 299 299 293 301 299 300 302 300 300 299 303 302 300 302 305 301 296 301 303 299 298 300 301 300 298 299 298 298 297 297 299 302 302 304 304 303 300 299 297 294 290 294 296 295 296 296 296 296 295 296 297 299 300 300 300 301 301
303 304 302 296 293 294 296 296 293 292 288 290 288 291 293 293 292 294 294 297 295 294 297 295 298 301 302 301 299 300 302 303 303 304 303 302 296 303 301 302 303 298 300 301 305 305 302 295 303 301 291 293 300 300 302 302 301 300 300 301 301 303 300 300 300 304 302 296 296 294 289 286 291 294 294 295 295 294 293 294 295 296 298 299 299 300 301 301
305 307 305 301 291 294 293 295 292 290 286 292 291 293 292 293 295 296 289 296 297 298 300 300 302 301 299 300 300 302 304 303 304 307 307 305 307 305 305 305 303 300 299 303 306 300 301 299 296 295 292 290 300 300 299 299 297 292 292 296 299 301 302 303 304 305 303 300 293 291 292 292 292 294 292 292 293 293 293 294 294 296 297 299 299 300 300 300
Wind_Speed
9 9 9 9 9 9 9 9 10 9 8 8 9 9 10 10 10 11 11 12 12 13 13 13 15 15 14 16 17 18 18 14 16 13 13 14 2 12 8 10 9 8 9 9 9 10 12 12 12 11 10 8 8 10 7 9 5 7 8 8 8 8 8 5 7 8 9 7 6 5 3 1 9 9 7 8 7 7 9 7 7 8 7 8 15 15 16 16
9 9 9 9 8 8 8 8 8 9 9 7 8 8 9 10 10 11 11 11 12 13 13 13 14 15 15 16 17 17 17 16 15 16 18 3 12 12 9 7 10 9 8 11 10 12 11 12 12 11 10 9 7 8 8 8 8 8 7 8 9 8 2 4 2 8 3 8 2 5 3 4 5 10 10 11 9 9 9 9 9 10 7 12 17 16 14 15
9 9 9 9 9 8 9 9 9 9 9 9 9 10 9 9 10 11 11 12 12 13 14 13 14 15 16 16 17 15 17 15 15 17 5 10 9 12 10 10 12 11 12 11 11 11 11 10 10 11 10 9 8 7 8 6 9 10 9 8 9 4 3 2 4 5 7 0 4 2 4 4 6 4 12 10 10 11 10 10 11 10 10 12 14 13 13 12
9 9 9 9 9 9 9 10 9 10 10 9 7 8 10 10 11 11 11 11 12 13 13 13 14 15 16 17 15 16 13 14 13 6 13 8 6 8 9 10 14 14 15 13 9 12 10 7 10 11 10 11 8 9 8 7 8 8 10 9 6 4 4 4 4 2 4 2 3 1 3 6 9 1 8 5 8 9 9 11 9 13 13 12 12 14 11 12
9 9 8 9 9 9 10 10 10 10 10 11 10 7 9 10 10 11 11 11 11 11 13 14 14 15 16 17 16 12 11 9 3 14 9 6 7 8 9 11 13 16 15 11 10 11 11 10 10 11 11 9 8 8 9 9 10 5 11 13 6 3 8 7 7 6 1 2 3 2 5 3 3 4 8 6 8 8 7 8 9 13 14 10 11 14 13 13
8 8 8 8 9 9 10 10 11 11 11 10 10 11 10 10 10 10 10 10 11 12 13 13 14 15 17 16 15 11 7 5 5 8 7 6 7 9 12 12 14 16 14 14 12 11 12 12 12 11 10 11 9 9 9 11 10 8 9 12 6 4 7 8 5 6 5 4 2 4 5 2 5 8 8 10 5 8 8 10 8 16 15 9 13 13 12 13
8 8 8 8 9 10 10 11 11 11 12 11 11 11 10 10 10 9 10 9 10 12 12 12 14 15 15 18 15 11 11 12 2 10 9 7 6 10 12 13 11 15 15 14 14 12 14 13 13 12 11 11 10 10 10 12 11 11 7 11 10 6 8 5 6 8 6 4 2 2 4 4 4 9 5 3 5 5 6 6 10 11 11 10 11 10 11 12
8 8 8 9 9 10 10 11 11 11 12 12 10 10 10 10 10 10 10 10 10 11 11 11 13 14 14 12 8 9 12 12 7 12 8 8 10 11 13 11 14 15 16 17 15 16 13 15 14 12 12 10 8 11 9 10 12 11 13 4 5 9 10 4 4 8 6 4 4 3 6 4 7 1 11 6 7 5 8 7 9 15 12 13 13 10 11 12
8 8 8 9 10 10 10 11 11 11 11 11 11 10 10 10 9 9 9 9 10 11 11 11 12 13 12 10 8 9 10 16 4 3 9 9 8 10 14 10 14 15 15 16 16 14 14 14 15 13 10 12 10 9 10 9 10 12 12 8 6 7 8 7 8 7 7 6 3 5 6 5 3 2 9 9 6 6 7 7 8 12 15 9 9 9 11 11
8 9 9 9 10 10 11 11 11 11 11 10 11 11 10 10 9 9 9 9 9 10 10 11 12 12 13 8 9 9 3 7 3 2 1 1 4 9 13 9 14 16 15 17 15 16 16 12 14 13 15 12 9 10 9 11 3 9 13 12 9 9 8 9 10 11 9 8 7 9 7 8 7 10 7 5 9 6 7 9 8 10 12 11 9 7 9 11
8 8 9 9 10 11 11 11 11 11 11 11 10 11 10 9 10 8 8 9 9 10 10 10 10 13 10 8 10 10 5 5 4 4 2 2 5 9 11 9 12 14 16 16 16 17 15 14 11 9 9 8 8 9 11 11 9 1 7 12 11 8 9 8 12 11 9 8 8 8 9 9 9 12 3 13 10 7 8 8 9 9 11 11 7 8 6 8
8 8 9 9 10 10 11 11 11 11 11 10 9 10 10 9 9 9 8 9 10 9 9 8 10 8 9 9 10 9 5 0 3 3 3 4 5 4 5 6 10 13 15 15 16 15 14 14 10 11 7 8 11 7 13 10 12 6 6 9 11 11 10 11 12 10 10 10 13 10 7 9 10 12 7 8 7 7 6 8 10 10 14 10 8 5 7 7
9 9 9 9 10 11 11 11 11 12 11 10 9 9 10 10 10 9 8 9 8 8 8 9 9 7 9 10 14 20 10 2 5 2 3 4 2 5 5 8 10 13 14 14 14 14 13 12 9 11 11 3 9 6 1 13 10 9 8 10 11 12 13 14 12 14 14 8 14 12 9 10 14 10 9 8 7 6 6 6 8 9 14 11 10 9 6 7
10 9 9 10 10 11 11 11 11 11 10 10 10 10 10 9 9 10 10 9 9 10 9 8 9 8 8 11 8 10 14 14 13 13 12 9 8 6 5 6 9 10 10 13 11 10 12 7 8 11 10 10 8 11 7 10 10 10 9 10 9 11 11 16 15 16 17 10 12 12 10 11 16 12 10 6 6 6 9 9 10 9 14 14 10 8 7 8
10 10 9 10 10 10 10 11 11 10 10 10 10 9 8 8 9 9 8 10 10 9 8 9 8 7 8 10 16 21 13 8 10 13 12 13 11 9 9 5 8 9 8 10 10 9 6 7 8 11 11 12 12 4 10 9 10 10 10 11 10 10 10 17 18 16 16 13 13 15 13 6 13 11 12 10 8 5 4 4 4 7 16 9 11 9 8 8
11 10 10 9 9 9 10 10 10 9 9 9 10 8 10 11 11 11 10 10 11 10 9 9 8 9 9 11 2 8 12 15 16 17 13 13 12 12 9 8 8 10 9 9 4 5 6 8 11 10 9 10 11 8 10 9 10 11 12 10 12 11 10 15 20 16 19 13 15 16 8 12 8 9 9 8 9 8 7 6 8 9 14 7 9 9 10 6
11 11 10 9 8 8 9 10 9 9 9 9 8 11 15 14 13 11 9 9 9 9 8 7 8 6 7 3 1 10 11 14 12 13 14 13 11 12 10 11 11 11 11 7 7 7 10 11 8 10 11 10 11 10 10 11 10 11 12 9 12 13 11 12 18 16 19 15 15 19 9 9 11 8 8 9 7 9 9 9 9 9 13 8 8 6 9 10
11 10 10 9 8 8 9 10 9 9 9 7 9 15 14 12 9 6 10 9 8 7 8 9 5 7 13 18 11 14 14 11 13 9 13 13 13 12 11 12 11 13 12 12 10 13 11 10 11 10 11 12 13 13 12 12 11 11 12 11 11 15 12 12 15 17 19 15 15 18 14 12 11 9 7 6 6 7 5 3 5 5 8 12 6 6 8 7
11 11 10 9 8 8 9 8 9 8 8 8 15 18 18 16 10 9 7 9 10 7 6 9 10 10 5 11 19 3 8 5 9 11 12 14 14 11 11 11 12 15 13 12 10 15 11 10 11 12 14 14 14 15 13 10 12 12 14 12 9 13 11 11 14 16 19 15 15 17 14 11 12 9 8 8 6 6 6 5 5 4 7 9 12 6 6 8
11 11 10 9 8 8 8 8 8 9 4 9 9 8 8 7 7 8 10 12 14 13 10 11 18 16 3 3 14 6 6 7 9 11 12 13 13 15 14 13 14 14 14 12 14 16 11 14 14 15 13 15 16 17 16 14 9 12 13 15 8 12 11 10 15 17 18 15 14 17 14 12 9 10 10 10 9 8 8 7 5 5 7 8 10 5 8 9
12 11 10 8 8 8 8 8 7 5 6 8 8 8 8 11 12 8 14 13 16 18 20 10 20 17 12 7 3 5 10 11 11 12 14 13 16 15 15 15 15 14 14 15 12 12 12 15 16 17 17 16 17 16 16 16 6 10 12 14 9 14 11 9 11 18 17 13 14 17 15 13 10 10 10 10 12 13 10 9 8 6 10 12 14 10 11 10
11 10 9 8 8 8 8 8 7 2 7 9 9 10 11 5 9 4 6 9 19 23 21 21 13 15 16 12 2 0 5 10 14 14 13 17 17 16 16 16 17 15 14 16 12 13 14 16 16 17 17 15 15 15 15 13 9 9 10 11 11 12 10 12 9 12 15 15 11 10 14 10 10 10 8 10 13 12 11 10 9 10 12 11 9 11 11 11
12 10 9 8 7 7 7 7 4 8 7 7 9 11 11 10 6 6 7 10 12 14 21 19 19 18 15 12 11 5 11 12 14 15 16 17 18 19 17 16 16 15 16 18 15 14 13 15 18 16 16 15 15 15 16 12 11 10 11 12 11 11 15 12 12 15 13 11 8 10 10 8 10 10 9 11 13 14 13 13 13 12 12 12 12 11 11 11
12 10 8 7 7 7 8 3 6 9 10 11 11 12 8 2 5 6 8 8 9 13 18 18 18 17 17 15 10 12 12 10 11 18 16 17 17 18 15 19 18 17 16 20 18 14 13 11 17 16 17 16 15 17 18 11 11 12 13 11 11 13 15 10 11 13 12 14 9 14 11 7 9 12 9 11 14 15 13 12 12 11 11 11 11 12 12 11
12 10 8 7 7 6 5 5 8 11 10 12 13 10 10 7 4 6 8 9 12 13 12 17 14 16 15 13 10 14 13 10 13 11 16 19 18 17 14 14 13 17 17 19 18 15 15 13 17 18 18 18 17 16 17 13 12 12 13 13 10 14 12 12 15 15 11 13 11 17 11 11 13 13 11 10 10 12 11 11 10 10 9 10 11 11 10 10
11 9 7 6 6 5 4 7 9 9 12 9 8 6 4 6 8 3 6 6 10 10 16 17 13 15 12 18 11 11 11 13 13 10 16 17 15 16 11 13 12 16 19 19 16 10 11 12 14 18 19 20 18 14 16 15 12 11 13 15 13 12 13 15 17 13 12 12 14 16 12 8 12 13 13 11 10 10 10 10 9 8 8 9 9 8 8 8
10 8 7 6 5 6 6 4 7 2 6 9 4 2 5 5 1 0 5 7 9 10 18 9 16 10 13 16 15 14 14 14 12 12 15 17 18 15 14 13 14 11 13 9 9 13 12 15 16 18 17 17 16 14 16 18 13 11 11 16 14 11 13 10 14 13 9 9 13 18 14 8 11 12 14 14 12 11 10 8 9 9 9 10 9 9 8 8
8 7 7 6 6 8 8 7 8 6 2 7 6 4 3 3 0 2 4 5 5 15 15 14 10 12 16 18 20 17 10 14 15 17 12 17 18 18 16 17 16 17 16 12 15 8 14 14 16 17 17 15 15 15 14 18 15 9 12 15 11 9 12 15 13 12 11 11 11 14 18 13 8 9 13 15 12 12 10 8 8 8 9 9 9 8 8 8
7 7 7 7 8 11 10 8 8 7 1 4 1 4 4 1 3 5 5 6 6 7 9 15 9 12 13 20 21 19 17 15 15 17 14 15 20 11 15 16 17 16 16 17 12 10 12 15 16 16 15 14 14 15 15 18 15 15 11 15 11 10 10 11 11 12 12 10 11 14 15 12 11 11 11 13 13 12 11 9 7 8 8 8 8 8 8 8
7 7 7 7 7 8 8 9 11 9 8 2 5 5 2 4 6 5 6 8 8 10 13 10 13 17 18 20 18 21 22 13 13 17 17 15 20 17 13 14 16 15 16 17 14 11 12 8 12 13 15 13 14 14 15 16 18 16 11 14 13 12 9 10 11 11 10 11 13 13 16 14 8 11 11 13 13 13 12 9 8 9 8 8 8 8 7 7
7 7 8 8 8 3 6 7 10 11 8 3 4 5 4 5 6 8 9 4 7 7 9 13 14 19 21 22 17 20 22 13 16 21 17 17 19 18 13 14 14 14 15 13 14 15 11 12 12 11 13 11 13 13 14 14 19 19 8 11 12 12 10 9 9 11 11 13 15 16 17 19 14 8 9 3 13 17 13 11 10 9 9 8 7 7 7 7
6 7 8 8 7 5 7 2 6 5 5 4 4 7 7 6 6 8 9 3 9 11 11 12 16 17 21 20 16 21 18 16 16 20 19 17 18 17 17 16 16 17 17 16 16 16 15 14 13 15 13 17 15 14 14 15 17 16 13 13 14 11 8 10 11 12 12 11 12 17 20 16 12 4 14 17 14 14 13 10 10 10 10 9 8 7 6 6
6 7 9 9 9 8 9 3 3 4 3 4 7 6 5 6 10 10 9 11 1 4 8 14 16 20 19 20 18 22 21 17 18 18 19 19 17 18 19 18 20 16 14 17 15 14 13 14 16 16 15 15 15 15 15 13 15 15 16 15 14 13 12 11 13 7 10 12 9 14 18 8 13 10 13 18 17 16 15 12 10 9 9 8 8 7 7 7
6 8 8 8 9 8 7 6 5 5 5 5 8 6 6 6 8 12 10 9 4 4 5 10 17 18 21 16 18 21 19 19 18 15 20 17 19 17 18 23 23 21 14 16 16 16 14 15 15 17 13 17 18 16 14 12 16 15 15 14 13 12 10 11 11 12 12 10 10 9 16 9 12 6 12 16 16 16 15 13 10 9 9 8 8 7 7 7
6 9 9 7 9 9 9 8 7 7 6 7 7 8 8 9 8 12 10 5 6 2 9 2 14 18 19 17 18 22 17 15 21 19 19 18 17 17 19 19 24 20 16 12 14 10 19 11 12 18 9 17 17 14 15 15 12 13 14 12 14 14 9 11 7 10 12 10 10 8 1 5 5 11 14 13 14 14 14 13 10 8 7 7 7 6 7 7
7 8 9 8 9 9 10 8 8 8 8 8 8 9 13 9 5 3 0 9 2 6 5 6 9 18 15 15 18 22 25 14 21 17 17 18 19 17 19 15 19 24 16 14 10 11 14 14 15 18 15 18 17 14 16 15 11 13 14 16 14 13 12 7 4 3 5 8 9 5 7 8 10 6 14 14 13 13 13 12 10 9 8 8 7 7 7 7
8 6 8 9 9 9 11 11 9 9 8 9 8 10 9 7 6 5 3 5 3 2 4 10 11 13 16 15 16 23 22 18 20 17 15 19 17 21 21 19 21 24 22 13 12 11 11 11 17 19 18 15 17 16 18 19 12 10 14 13 11 13 13 9 8 7 8 11 6 11 11 10 11 6 12 15 15 13 13 12 12 11 9 8 7 7 7 7
6 6 5 7 8 10 10 12 11 9 8 8 10 11 7 9 4 5 7 9 6 5 4 8 8 15 15 15 17 22 22 17 19 19 15 19 11 21 21 17 22 21 23 17 10 14 12 10 13 19 18 16 18 18 17 14 17 14 14 10 13 12 17 12 6 11 12 11 8 12 15 10 11 9 13 16 16 16 14 14 13 12 10 9 9 8 8 7
7 5 5 5 4 6 8 11 10 9 8 9 8 9 9 7 12 8 1 2 1 4 7 2 4 14 14 14 14 20 23 17 19 18 15 16 14 21 21 17 21 23 22 19 12 10 12 9 10 17 19 16 16 16 15 14 18 20 14 16 15 11 12 12 9 8 10 11 8 10 15 8 10 12 18 18 17 17 16 14 12 12 10 9 8 8 7 7
6 4 4 4 4 8 8 10 9 9 9 10 9 9 2 8 15 9 3 4 1 3 2 6 6 8 15 14 16 17 21 19 17 16 16 14 14 22 21 20 15 23 24 21 13 12 9 9 8 14 19 17 15 15 17 17 17 16 13 14 13 10 9 11 9 12 11 10 11 7 9 4 5 6 16 17 16 16 16 14 12 11 10 10 9 8 8 8
4 2 5 6 8 9 10 9 9 10 10 9 11 9 9 11 4 5 3 1 3 1 5 3 8 7 10 15 17 18 15 16 16 15 13 15 15 13 19 19 16 20 21 21 15 12 8 10 9 12 15 16 14 16 18 19 17 15 12 13 14 15 14 15 13 11 12 11 9 9 7 6 4 7 5 14 12 15 15 14 13 12 11 11 9 9 8 8
4 3 5 8 10 13 11 9 8 9 9 10 9 8 8 6 8 3 5 4 2 4 4 6 10 8 8 7 11 18 15 16 16 15 13 13 15 12 16 23 20 21 18 14 15 13 9 8 9 12 16 16 15 17 19 18 18 15 14 14 15 13 13 12 12 12 12 11 11 11 6 3 6 6 8 10 14 15 14 14 14 12 12 11 10 10 10 9
3 1 5 9 10 13 9 8 9 9 10 9 7 10 10 6 8 2 5 2 4 2 5 7 8 5 8 7 11 14 19 12 18 15 13 15 14 12 16 24 20 21 19 14 16 12 2 5 12 11 12 12 17 17 18 8 13 18 17 16 15 14 15 12 10 10 10 8 10 7 5 4 5 7 9 13 15 14 13 13 14 12 11 11 11 11 9 8
3 4 6 7 10 10 8 8 8 9 9 9 9 10 7 8 8 5 7 3 2 3 7 6 7 7 4 4 8 10 18 10 16 16 13 14 13 18 20 22 23 16 18 12 12 14 7 8 10 9 8 12 7 6 11 13 12 12 13 15 15 15 18 16 11 8 8 13 13 6 6 3 7 6 8 12 15 14 14 12 12 13 12 11 11 10 9 8
3 6 6 7 6 6 8 4 7 6 8 7 8 10 9 7 7 7 7 5 4 9 8 7 8 5 6 5 8 7 14 14 12 16 11 13 9 10 17 17 18 16 15 15 12 11 8 9 9 11 14 14 13 16 16 15 16 11 14 16 19 21 19 14 11 9 7 9 15 8 5 7 12 11 11 13 14 14 12 12 11 11 12 12 10 10 9 8
3 5 6 7 6 6 9 9 7 8 5 7 6 8 9 8 5 1 5 9 10 9 9 10 9 9 9 7 8 7 12 16 12 11 12 10 10 11 13 21 18 16 18 13 14 12 7 5 8 7 11 10 11 9 11 12 12 14 16 18 17 17 18 17 10 8 7 7 10 3 18 16 14 14 14 14 14 15 14 13 12 12 12 11 10 10 9 8
4 2 7 6 6 9 8 8 9 9 4 4 3 6 11 12 4 3 4 7 5 9 8 10 9 8 7 8 7 7 11 13 10 11 13 11 11 10 15 16 17 10 14 10 12 10 8 7 4 2 1 5 7 14 14 18 16 16 17 14 13 15 11 13 8 8 4 7 4 8 22 20 15 14 14 14 14 13 12 13 13 12 11 11 10 11 11 10
2 3 5 7 4 6 8 7 9 3 6 6 4 5 5 7 6 6 3 8 7 5 7 6 11 12 11 7 8 7 10 15 13 10 12 12 12 15 15 17 16 8 12 12 13 9 10 4 3 6 6 5 1 2 5 10 15 16 14 14 14 12 13 8 11 4 3 4 2 12 13 17 16 14 14 13 14 14 13 13 12 13 13 12 11 11 11 10
5 2 1 6 1 4 7 2 4 3 1 3 3 3 6 7 8 6 5 4 6 8 10 7 9 11 13 10 8 8 2 3 11 12 6 6 9 13 13 16 17 11 12 12 12 8 6 6 8 7 7 8 5 6 14 14 7 9 13 13 10 11 11 14 10 4 2 13 16 15 15 16 14 15 14 13 13 14 13 12 12 13 12 12 11 11 10 10
3 3 1 1 3 5 3 0 1 2 3 4 3 1 3 5 8 7 6 7 4 7 7 13 11 10 10 11 10 8 3 9 9 8 5 1 3 9 10 11 11 12 14 13 11 8 7 4 8 10 9 9 8 7 6 9 8 10 6 6 6 7 9 7 11 17 21 16 18 20 20 16 10 14 15 14 13 12 12 13 13 12 12 12 11 11 10 10
5 2 1 4 5 3 5 2 4 2 2 0 2 5 6 9 10 9 11 7 10 10 9 13 10 9 10 9 12 9 7 6 12 7 14 11 11 10 8 10 13 15 17 13 9 6 6 5 8 10 9 5 9 11 13 14 16 16 12 9 6 9 11 8 8 6 15 18 19 19 15 11 12 14 14 14 14 14 14 14 13 11 11 11 11 11 10 10
4 1 2 1 3 1 4 5 4 2 3 5 7 6 4 6 9 6 6 7 9 11 9 7 7 7 6 11 5 3 3 3 6 7 3 5 6 9 6 6 16 14 13 11 9 8 7 7 7 7 6 7 9 12 14 15 14 10 6 5 5 6 9 12 13 12 16 20 16 9 9 14 16 15 16 14 15 14 13 12 12 12 11 11 11 11 10 10
Wind_Direction
333 333 337 334 337 331 332 330 321 320 316 319 322 320 319 316 319 321 322 325 327 320 323 324 325 322 323 319 320 320 318 306 301 287 253 243 103 113 105 126 155 164 205 215 219 185 193 199 204 200 211 203 208 232 180 214 229 229 222 236 227 245 224 125 223 180 45 94 85 123 134 230 155 177 141 178 202 130 155 157 100 88 74 109 100 105 117 123
333 330 329 331 330 332 329 329 327 324 317 321 315 320 319 318 319 315 320 321 324 321 320 323 320 321 320 321 319 321 317 297 288 280 261 241 177 152 133 146 162 187 213 221 206 193 194 197 203 188 212 217 171 225 149 203 217 217 225 231 240 216 323 134 75 67 236 80 43 91 144 280 100 176 140 194 182 150 174 142 157 121 115 105 110 128 133 129
328 329 327 326 327 329 328 325 326 324 321 318 324 309 311 313 315 319 319 320 319 318 319 324 320 319 319 318 316 319 303 297 282 265 265 61 145 157 154 156 177 192 206 213 204 207 210 193 195 201 207 227 171 202 185 176 201 225 247 220 243 262 81 111 52 97 45 49 91 22 123 263 119 294 142 218 169 171 191 154 169 140 128 127 120 120 129 128
324 322 322 324 321 322 325 319 320 320 318 303 309 321 312 316 312 311 316 317 318 319 317 324 321 317 318 313 322 312 296 288 272 217 84 84 114 154 171 161 186 197 216 242 218 225 226 220 198 213 211 241 172 226 181 177 212 190 237 244 218 242 136 189 202 91 72 322 58 40 144 178 168 119 196 202 162 189 201 160 180 151 135 132 128 137 134 136
319 317 318 317 319 319 318 320 311 318 319 313 293 294 311 305 307 309 308 314 317 318 320 319 319 316 315 314 312 299 300 284 102 87 92 127 151 170 167 180 190 202 215 227 229 229 230 227 203 217 239 223 211 201 227 185 222 229 227 243 309 56 264 122 183 100 77 99 268 143 215 50 138 182 210 199 185 183 193 149 186 145 116 134 157 141 143 139
309 312 313 314 314 318 317 313 317 313 314 313 310 298 295 302 307 307 308 312 318 319 316 322 318 314 315 317 304 283 265 220 74 107 106 107 166 169 180 183 197 216 210 223 222 215 220 221 216 214 218 241 202 213 195 229 185 244 215 254 274 300 241 136 170 137 205 172 218 238 70 164 241 169 180 223 23 44 33 115 87 107 124 152 148 136 142 140
298 308 307 310 311 314 316 313 313 309 307 310 311 302 297 297 295 301 307 314 317 316 315 318 316 315 318 306 280 263 249 277 292 132 127 189 159 170 178 190 191 215 215 216 213 213 209 218 213 212 224 226 230 217 213 209 196 242 248 200 221 232 248 127 194 152 191 177 211 309 139 217 166 173 146 199 78 74 104 93 96 88 123 158 133 148 144 133
297 293 305 304 310 309 313 313 311 312 307 307 302 303 296 290 297 306 308 307 309 319 312 316 317 310 322 310 287 221 236 251 227 136 131 161 191 170 174 189 191 204 211 214 204 211 203 218 207 216 228 225 207 214 218 208 200 222 242 237 228 206 230 202 217 193 190 207 213 155 203 164 205 57 170 141 135 137 122 121 120 136 158 139 147 161 132 119
295 293 294 303 304 308 309 311 308 306 308 302 304 300 299 296 299 304 308 311 308 309 314 310 310 314 303 283 285 275 243 234 86 64 154 172 174 163 177 182 193 200 209 211 212 210 210 214 219 220 216 223 240 229 212 213 201 224 239 225 215 210 216 207 212 201 191 203 176 171 186 175 121 156 185 140 105 130 137 133 149 146 127 120 126 139 127 125
285 294 294 300 303 306 307 307 306 303 300 302 299 301 300 300 295 294 303 303 305 304 311 310 305 307 292 271 251 248 136 50 65 90 66 226 166 181 197 194 184 203 208 208 208 212 210 212 222 209 253 269 262 226 216 198 284 194 213 233 223 206 211 196 211 194 193 207 172 204 171 168 147 204 142 141 133 135 166 147 152 164 129 136 137 145 117 120
283 288 292 293 303 302 304 301 300 300 299 299 301 300 296 302 301 300 300 305 304 302 303 304 305 299 281 259 246 226 69 245 78 98 79 176 199 196 204 212 189 209 212 206 212 210 210 231 207 235 234 244 244 236 230 203 231 208 249 212 227 229 211 187 214 194 192 198 190 204 180 143 173 204 248 154 135 164 170 160 161 158 104 84 113 88 102 110
277 283 290 293 299 304 302 300 295 297 297 300 301 295 296 295 301 296 294 297 298 296 292 297 296 280 275 263 238 234 80 33 206 88 151 206 193 216 258 252 215 216 213 210 210 207 218 220 228 227 224 199 246 243 226 219 237 241 228 225 212 216 220 205 205 202 196 187 195 185 170 185 168 192 85 99 136 172 184 165 172 156 119 123 110 94 88 92
276 279 286 294 296 302 301 299 299 296 299 296 302 296 294 295 290 294 287 285 277 288 298 291 284 268 270 254 237 249 263 284 260 233 258 261 216 201 224 230 235 225 223 223 208 209 212 224 232 237 233 251 229 216 17 200 219 230 204 242 199 208 217 200 211 202 197 179 180 187 202 188 186 143 147 142 145 159 198 172 184 151 134 127 129 98 107 110
264 274 280 291 296 299 303 302 301 299 296 300 297 306 301 309 303 293 289 284 293 289 284 285 277 265 255 255 259 234 240 255 264 260 243 233 243 219 202 221 226 221 230 241 226 205 212 208 230 242 239 232 223 115 246 186 202 221 208 225 235 198 212 192 199 195 194 152 189 178 217 175 185 132 142 156 147 188 188 187 171 171 138 132 99 125 114 104
257 266 274 282 298 298 299 305 303 302 299 297 297 304 305 282 281 277 277 285 268 274 273 276 245 245 232 257 247 250 252 263 260 243 231 223 218 229 229 192 215 214 218 229 226 203 172 201 225 226 223 220 273 206 217 206 194 216 211 209 228 227 192 183 194 185 200 159 186 198 235 180 135 141 149 161 168 195 204 167 169 109 51 97 149 127 135 96
257 261 269 282 292 301 298 298 302 302 298 296 299 307 289 274 258 258 262 274 300 302 256 234 218 231 291 278 270 104 202 219 230 235 230 226 217 226 207 191 196 201 195 210 223 160 189 198 216 213 221 204 230 218 208 203 201 210 223 200 214 220 197 177 183 180 206 159 191 205 202 133 141 126 142 151 164 171 190 171 169 123 124 158 157 144 123 102
256 258 268 279 288 297 292 288 292 293 296 299 309 274 258 259 264 260 258 252 235 226 233 228 187 216 240 69 27 219 204 210 229 213 211 212 215 216 186 179 191 182 193 169 193 178 183 208 200 222 233 214 207 221 203 204 196 207 210 217 211 215 183 176 171 191 202 187 186 201 215 95 100 123 135 149 167 181 175 184 168 179 139 126 100 127 132 139
253 258 267 276 283 285 287 280 284 291 298 313 276 276 282 284 299 285 217 215 223 213 224 264 274 217 249 259 251 226 209 208 198 203 198 192 209 208 187 185 179 181 179 178 177 194 175 200 191 216 201 216 202 219 218 202 202 198 191 221 193 223 173 185 178 180 204 198 195 195 209 131 124 109 102 116 144 186 160 137 123 152 158 147 121 148 120 112
250 253 260 269 279 280 283 285 280 292 300 297 274 266 265 264 255 225 186 186 181 183 208 193 193 195 17 197 206 52 190 163 162 201 186 186 191 207 188 188 182 179 184 189 173 202 169 209 194 218 208 204 206 212 215 217 199 203 198 210 208 203 171 211 175 180 196 187 201 188 196 127 132 108 100 94 100 109 144 127 151 157 126 144 141 141 109 110
246 251 256 263 268 275 279 282 285 283 309 269 274 252 218 219 191 203 193 190 210 199 244 167 194 225 242 214 184 159 75 133 192 201 188 183 180 192 192 188 180 192 191 199 166 206 165 205 199 207 210 201 209 211 218 229 214 204 198 216 205 207 195 188 179 177 188 190 205 189 189 134 114 109 100 101 106 102 100 103 107 103 134 137 107 82 106 88
244 248 253 262 265 271 270 275 285 287 199 269 268 269 229 208 205 210 183 207 212 233 246 224 193 227 244 66 118 209 209 188 219 191 198 171 189 183 187 187 182 196 200 201 179 187 187 212 210 208 212 204 208 210 220 232 274 228 197 210 192 215 195 188 167 164 184 205 198 190 177 139 118 109 105 95 86 80 80 88 85 97 89 69 109 122 96 89
246 245 249 256 265 270 273 270 277 161 217 268 259 244 259 289 3 350 299 217 215 225 237 248 236 234 248 265 246 343 270 207 193 195 179 177 182 197 170 195 186 199 186 202 175 188 201 213 209 206 210 210 210 209 218 232 219 236 211 201 210 198 206 137 148 174 182 208 188 179 146 149 136 106 102 91 86 82 75 67 67 71 76 84 78 87 89 86
252 242 245 252 260 269 269 278 251 190 265 253 243 239 253 283 328 327 301 284 290 224 222 228 230 239 242 234 231 209 224 219 185 188 172 189 175 208 170 195 189 200 188 201 189 188 203 213 212 203 207 210 203 205 214 214 221 222 216 205 215 185 205 162 166 181 187 219 164 166 159 135 128 123 112 96 93 87 75 74 72 68 71 69 67 73 79 75
246 239 245 249 262 264 270 252 204 233 240 247 249 249 256 264 300 310 273 265 268 230 211 214 222 225 228 221 198 208 216 208 217 182 165 193 188 197 194 198 191 205 197 200 199 201 209 200 203 203 202 207 202 200 211 201 210 222 226 217 211 200 200 160 149 191 178 217 176 180 179 158 167 162 139 113 105 98 90 86 83 76 79 78 77 68 63 65
232 235 237 250 257 277 281 241 248 241 244 227 234 236 240 262 287 251 282 261 241 262 214 207 208 217 220 230 200 203 207 237 230 192 167 198 188 190 206 190 208 204 205 197 203 212 212 210 189 202 196 201 206 199 203 196 209 207 229 237 216 221 153 177 166 184 177 198 187 192 189 199 180 177 156 139 115 104 94 87 75 82 84 75 68 65 64 65
233 230 234 244 260 257 268 262 245 239 226 225 235 190 215 206 205 307 263 252 262 210 178 210 168 207 204 201 186 201 198 225 213 216 167 198 202 200 180 202 212 199 208 194 205 217 214 190 191 197 195 199 205 205 194 202 216 208 199 232 225 214 184 191 163 182 189 198 182 201 209 196 173 179 162 151 117 115 105 90 88 84 78 71 69 67 68 67
227 225 231 238 233 242 247 244 1 259 236 214 250 85 184 145 326 82 235 219 253 197 175 162 169 154 185 183 176 177 203 200 187 217 178 187 204 201 209 196 190 234 201 192 199 207 224 189 195 197 193 194 197 203 193 201 216 219 178 206 229 225 196 169 183 195 204 205 183 198 217 209 174 178 160 153 143 132 127 107 95 84 82 78 73 72 70 71
221 225 234 231 231 233 259 308 294 246 226 9 128 142 184 215 78 235 247 223 227 129 184 149 205 136 196 161 184 195 216 144 180 194 202 174 213 189 228 198 197 207 194 190 208 180 203 199 190 184 188 196 203 204 191 199 217 218 168 196 221 218 196 187 192 199 219 188 201 197 209 228 182 178 157 162 159 146 137 128 103 93 88 84 81 78 77 74
223 229 234 234 236 243 261 259 265 241 251 106 112 226 172 132 277 226 230 226 137 142 100 152 127 168 193 164 189 201 217 174 191 160 186 179 209 210 208 213 196 206 207 197 215 181 184 219 178 192 194 202 205 200 204 194 213 232 182 189 204 222 217 194 206 209 210 215 214 195 203 228 204 155 184 174 169 153 140 125 105 95 91 87 84 76 72 74
223 230 226 227 239 233 239 243 242 246 273 174 192 208 183 238 217 206 192 237 161 154 185 136 184 171 183 171 188 194 212 189 199 152 179 190 190 225 218 231 202 201 211 197 224 212 187 192 170 203 203 206 199 196 205 190 217 231 198 178 198 207 212 206 218 211 221 220 216 203 205 226 209 163 181 185 190 146 132 129 123 111 101 89 82 82 80 77
230 225 224 220 234 235 234 234 227 219 225 233 224 219 219 230 225 206 186 196 187 118 152 151 181 173 178 180 179 187 212 186 187 159 174 183 187 205 202 215 210 199 214 197 212 218 164 177 199 205 213 207 201 195 203 194 210 224 181 206 192 204 208 215 229 230 224 225 196 208 210 206 234 160 204 121 119 140 140 134 133 125 112 103 98 92 83 81
230 228 226 228 246 259 237 93 24 170 179 172 215 215 202 208 228 222 183 152 231 142 197 171 178 179 179 183 184 179 193 191 182 173 176 181 182 192 195 205 187 192 200 197 200 216 192 197 198 203 202 209 187 206 190 193 208 214 185 208 202 184 192 205 201 209 225 231 194 208 210 198 222 50 123 117 120 129 121 122 128 121 114 106 101 93 84 77
231 232 233 242 237 227 235 251 268 108 69 171 221 216 213 212 208 215 232 170 187 258 164 174 168 179 180 181 187 179 193 199 166 176 180 180 190 192 199 213 192 206 192 190 201 199 205 191 191 199 193 207 200 204 179 188 200 191 199 200 201 192 189 208 200 208 221 233 224 212 210 216 98 81 99 112 115 113 111 112 115 112 108 103 97 91 82 74
232 230 230 221 232 232 230 221 216 189 201 222 219 198 227 226 209 205 218 205 109 195 218 198 163 182 182 188 181 177 185 206 168 179 185 178 192 185 195 213 199 198 212 188 207 187 199 190 198 197 195 186 211 215 187 194 190 191 204 208 207 209 188 197 205 202 211 211 203 235 219 151 170 132 121 115 118 119 111 112 108 104 101 96 86 82 79 75
226 238 239 240 232 228 224 219 215 211 228 223 217 209 199 213 219 184 207 161 145 220 198 239 184 183 178 196 180 182 194 189 183 183 187 185 191 189 192 198 200 198 199 195 201 200 207 207 181 204 193 181 211 208 188 194 193 195 209 218 214 217 189 209 204 227 201 208 196 207 7 34 84 136 123 125 126 123 124 120 126 113 110 103 92 84 80 75
238 234 222 224 219 211 208 205 207 200 222 218 221 212 214 209 201 239 28 354 127 174 175 224 220 184 177 194 177 183 193 211 174 191 190 194 188 196 189 194 201 197 197 202 178 198 193 207 180 183 198 185 204 195 211 185 203 182 207 211 215 215 208 212 195 326 333 244 203 144 99 100 116 123 130 126 125 124 125 128 127 126 115 109 97 90 82 73
242 234 211 209 212 200 193 194 187 199 216 231 231 228 225 220 254 20 302 288 70 221 193 197 192 195 181 186 179 183 183 203 177 197 187 192 191 200 189 195 204 193 212 199 189 213 192 201 183 173 193 185 195 202 224 191 214 181 212 208 213 223 233 217 219 193 224 223 196 176 138 152 155 157 146 138 135 138 135 132 132 127 127 117 108 98 87 80
245 223 220 193 197 192 184 179 180 195 218 227 234 256 274 266 238 148 239 223 184 216 244 206 194 220 182 190 180 178 179 199 176 195 191 189 197 190 190 193 193 200 207 194 213 184 203 199 180 178 193 181 185 198 225 210 212 222 202 193 215 187 209 201 232 209 206 212 195 196 159 176 191 146 161 155 151 146 144 140 138 133 128 120 114 105 98 87
249 217 186 166 187 154 176 169 187 200 220 224 231 235 246 248 292 277 283 331 357 300 229 167 254 202 197 191 186 182 181 196 176 197 192 178 208 181 199 195 185 198 200 199 196 191 201 206 173 185 196 172 183 192 203 195 206 235 216 199 221 237 218 208 211 234 220 217 199 207 186 199 207 164 168 162 157 149 145 144 135 133 128 123 116 109 98 89
224 203 138 145 188 156 165 179 195 210 220 224 219 233 245 260 233 221 254 293 350 276 123 335 292 238 200 195 191 186 182 191 185 192 206 168 208 165 203 188 186 189 195 199 195 187 202 211 186 174 192 177 197 188 202 195 193 202 220 214 195 228 205 229 202 223 206 220 212 197 196 141 31 142 162 159 163 151 145 133 135 130 125 116 109 104 97 85
237 281 120 174 162 158 167 183 198 206 215 231 247 249 250 259 213 191 237 321 312 60 329 292 281 278 213 195 193 192 173 185 191 201 196 169 203 166 200 185 183 190 195 194 193 185 209 192 198 173 193 195 198 188 204 198 198 197 202 210 206 199 203 205 214 213 223 214 216 194 190 68 17 336 153 155 155 141 136 135 131 125 119 111 107 104 97 89
227 221 131 163 157 173 181 183 214 212 220 224 221 218 238 217 277 263 215 136 189 287 210 259 265 263 271 241 239 185 184 183 188 204 183 186 185 201 180 191 183 189 193 192 196 170 224 184 195 193 198 188 198 181 211 205 199 202 200 214 209 197 217 206 219 202 225 224 229 219 135 65 353 354 125 115 118 130 131 131 126 120 115 111 106 99 90 84
222 14 108 158 177 190 199 223 203 207 220 225 232 256 267 254 270 233 268 141 303 244 272 258 246 239 233 237 240 210 191 185 184 196 182 185 168 206 182 183 188 182 196 192 193 172 152 234 187 206 197 189 197 189 194 223 216 201 203 227 214 205 207 223 216 214 216 214 231 211 130 122 55 20 65 99 116 122 124 126 124 120 117 111 107 101 96 94
137 171 136 154 187 200 231 215 210 204 214 218 239 254 239 259 229 227 221 226 269 279 260 256 246 239 272 245 251 250 191 179 182 194 196 179 180 196 183 190 178 188 195 172 199 153 196 215 203 174 200 189 173 209 195 195 219 219 203 205 222 215 207 222 239 221 224 222 229 213 166 161 130 103 92 108 120 121 124 125 122 121 117 112 109 104 100 97
243 120 121 143 167 219 226 231 316 253 202 228 233 243 248 235 242 243 273 250 201 249 270 264 271 291 259 261 248 247 211 195 169 198 194 182 160 188 178 194 187 192 192 176 209 145 216 191 201 192 195 185 189 194 193 189 204 209 217 198 212 214 207 207 217 212 231 237 230 200 83 110 132 132 132 128 123 121 121 122 119 119 117 118 115 112 106 100
206 138 142 156 200 214 250 268 275 287 263 232 243 268 255 248 191 236 256 259 261 256 254 286 284 284 273 262 232 230 220 181 190 166 201 153 149 189 179 186 190 189 185 169 181 165 205 188 218 235 225 205 198 192 198 200 187 209 206 214 205 230 211 205 214 217 211 227 226 179 137 138 146 144 144 137 132 127 127 124 124 121 118 116 117 115 110 104
305 186 155 169 180 218 234 220 235 222 237 216 236 222 226 226 190 249 169 261 220 254 262 261 262 255 263 241 251 232 206 174 170 172 187 129 172 181 186 189 192 171 113 146 181 179 192 192 160 192 60 4 281 207 192 193 197 202 207 208 215 217 241 219 196 200 220 248 181 90 139 136 152 147 146 140 132 129 129 129 126 124 122 119 118 114 111 104
262 129 187 159 218 183 210 222 241 253 242 233 251 1 252 255 251 251 249 253 270 256 268 238 237 248 252 244 203 216 195 180 178 187 163 149 176 184 185 188 189 117 179 176 188 197 185 170 154 144 139 190 296 212 169 198 204 202 200 201 206 213 215 228 238 242 9 339 125 143 144 130 143 148 146 140 138 133 132 130 127 124 122 124 124 118 111 113
246 198 264 114 316 283 186 2 225 233 334 300 255 289 276 266 265 256 274 299 251 236 232 254 252 233 228 245 239 229 258 235 177 186 189 161 184 179 175 183 181 161 189 183 184 177 199 167 179 166 154 160 154 189 201 206 189 203 195 190 199 206 201 210 224 262 56 119 132 135 120 119 136 138 138 133 128 125 123 125 125 124 125 124 121 117 115 107
340 354 133 64 261 271 301 168 152 177 207 7 318 307 297 279 266 287 269 249 265 261 232 244 245 242 230 223 220 233 194 262 172 159 78 150 202 190 173 181 155 180 193 183 185 153 217 133 163 154 130 134 146 141 103 94 116 99 111 156 183 217 188 136 108 105 101 97 111 117 118 111 116 125 123 122 119 120 124 125 123 124 127 125 118 117 116 101
324 8 330 336 318 284 105 103 91 61 27 98 235 266 245 258 264 267 267 265 256 245 221 230 231 255 254 230 214 197 184 256 167 108 141 188 195 195 186 176 173 175 189 180 171 149 165 179 181 176 156 150 148 142 130 135 111 98 90 89 118 147 130 136 120 130 127 132 126 125 122 131 134 130 124 125 127 127 126 126 126 125 124 121 122 117 108 101
322 356 330 313 265 37 58 99 109 103 239 212 208 233 230 253 264 254 272 258 248 248 246 261 258 270 262 222 168 67 67 217 113 93 41 252 226 177 208 197 181 182 179 172 141 155 173 167 182 171 171 153 151 146 144 139 121 115 97 72 58 91 95 94 85 90 119 132 140 162 147 143 141 137 130 130 129 127 126 127 126 125 123 126 117 109 104 97